GFSSGP_925_rhum_114.txt.gz
RH
28 23 22 16 12 8 7 5 5 6 6 8 7 7 6 7 9 14 11 45 53 53 75 61 56 54 50 54 55 59 62 65 67 62 59 63 63 61 63 66 74 75 73 71 74 78 76 72 70
22 22 18 11 11 10 8 5 7 5 6 7 7 8 8 10 11 13 21 42 57 58 69 76 56 53 49 50 54 60 63 64 66 66 63 63 62 59 63 68 72 72 69 73 75 73 72 71 74
23 22 14 13 12 12 9 6 6 7 8 8 8 8 10 12 18 22 27 49 65 59 64 74 55 52 50 49 51 55 59 62 64 65 64 62 59 59 65 69 73 72 71 75 77 73 70 74 75
18 14 12 15 14 11 10 8 8 8 9 10 9 10 10 20 21 29 39 61 63 60 61 82 56 51 51 50 49 50 52 54 58 62 64 62 59 62 67 71 74 72 73 76 76 72 71 75 75
17 14 15 16 14 12 10 10 12 11 12 11 10 10 11 15 23 31 42 66 61 62 64 89 64 52 53 52 50 49 51 54 56 62 64 63 64 67 70 72 74 72 76 77 72 69 70 72 72
14 15 17 16 14 13 12 12 13 12 11 11 13 13 13 13 19 36 44 64 72 69 75 87 76 58 56 55 52 52 52 55 57 63 66 67 70 71 72 74 75 75 78 80 74 71 70 71 73
17 16 17 15 15 15 12 14 14 13 12 12 14 16 13 14 16 38 50 66 80 80 82 92 98 84 63 59 56 55 55 56 59 65 67 70 73 73 74 75 76 78 83 83 70 75 72 71 74
13 15 16 17 16 17 11 13 12 13 14 16 14 15 17 17 15 23 29 68 85 88 87 91 99 98 89 86 63 62 59 58 58 63 68 69 70 73 75 78 81 80 84 80 71 76 72 72 76
16 16 16 16 16 14 12 17 13 17 17 15 17 17 17 17 13 14 16 38 71 95 95 95 100 99 91 83 87 70 67 65 62 63 68 71 86 88 87 90 88 86 86 85 76 74 74 76 79
16 14 14 13 13 13 12 15 14 18 16 16 15 14 14 12 12 14 15 17 37 71 92 98 99 99 98 79 84 88 88 85 85 84 88 83 79 82 80 86 95 87 85 86 78 74 79 82 84
14 17 11 17 15 15 16 16 13 14 15 13 15 13 12 14 14 14 15 16 22 48 74 89 96 99 100 81 93 80 79 77 81 83 81 79 81 88 84 85 94 96 93 95 90 90 86 79 68
20 15 14 14 16 17 16 12 13 12 13 12 12 13 15 15 15 14 15 15 18 35 59 75 85 90 96 95 99 99 87 96 95 87 83 76 88 82 82 77 78 83 85 81 84 82 78 78 75
20 13 14 16 16 14 13 14 14 14 11 11 13 13 14 13 12 12 12 14 16 23 38 61 76 81 83 94 91 98 88 76 92 97 99 87 96 94 86 71 73 74 80 81 82 80 85 86 86
16 19 17 14 13 11 13 12 12 13 14 13 12 11 11 11 11 12 13 12 15 16 18 29 59 78 78 81 86 85 87 72 91 99 100 99 87 85 98 78 75 72 80 80 82 82 84 85 81
15 17 12 11 10 12 15 15 16 11 14 12 11 10 9 9 9 9 10 12 12 13 15 19 32 55 76 79 81 82 76 77 80 99 99 99 99 87 97 96 77 70 76 86 87 85 85 84 84
19 17 14 13 16 13 14 11 8 14 13 12 10 10 9 9 9 9 10 11 11 12 14 17 24 34 63 74 76 75 72 76 72 88 84 93 98 98 96 97 96 83 80 91 88 89 89 84 86
18 10 10 11 13 14 14 12 10 10 11 13 12 10 9 9 9 9 10 11 11 12 15 18 23 27 44 67 74 79 76 76 68 72 75 78 93 98 92 93 97 98 97 97 90 86 88 85 86
11 14 12 14 11 15 15 14 11 12 12 13 12 10 10 9 9 11 13 18 31 33 37 35 27 28 29 48 66 64 72 75 72 68 68 71 84 87 89 74 92 99 100 100 97 90 87 83 88
18 19 17 13 14 18 18 14 10 8 7 8 8 10 10 19 30 38 45 47 50 50 54 54 57 55 35 30 49 53 65 71 69 70 68 70 80 86 83 81 90 95 100 100 100 100 97 94 91
20 19 18 15 18 17 12 10 8 7 9 11 10 22 41 44 45 47 51 54 57 59 60 62 62 60 62 42 28 46 52 66 66 64 71 77 81 82 85 83 92 100 100 100 100 100 100 100 99
20 22 20 18 13 11 11 11 7 10 10 21 41 43 44 48 51 50 52 56 60 62 64 66 67 66 64 66 57 31 50 55 62 72 80 84 81 83 89 89 97 100 100 100 100 99 100 98 100
21 14 16 16 17 15 11 18 13 9 16 37 42 45 47 47 45 46 51 56 60 63 69 72 73 74 71 67 63 55 34 47 57 69 83 84 86 87 91 96 99 100 100 100 100 100 98 98 97
18 18 20 21 22 22 18 20 15 9 15 45 55 56 50 48 47 48 50 57 60 62 68 76 78 79 79 78 72 68 49 45 48 61 68 79 91 97 96 99 98 98 99 100 99 99 98 97 94
18 23 20 22 25 30 18 15 15 23 69 72 66 63 54 49 50 49 53 57 60 64 71 78 82 81 86 90 85 78 70 50 46 49 64 72 90 100 100 100 99 99 100 100 100 100 99 98 98
25 27 29 30 41 31 20 26 16 62 63 64 66 61 54 53 56 58 58 59 65 72 79 83 86 89 90 95 96 93 84 68 56 49 58 65 88 96 100 100 100 99 100 100 100 100 100 98 100
30 29 28 24 20 18 24 29 26 54 49 49 52 54 56 58 59 62 65 68 71 78 80 87 94 96 96 98 99 99 93 72 61 56 54 62 83 88 93 99 100 100 100 100 100 100 100 100 100
28 38 23 34 30 39 26 18 46 52 56 54 58 60 66 65 66 68 68 73 75 84 85 92 98 97 98 98 100 100 98 80 64 61 62 65 78 86 95 99 99 100 100 100 100 100 100 100 99
28 27 53 42 64 53 29 29 59 89 79 72 76 74 73 73 75 77 77 85 82 90 94 94 100 98 100 100 100 100 100 94 72 79 81 76 80 82 90 99 99 100 100 100 100 100 100 100 100
39 43 41 42 46 58 57 76 92 93 91 85 70 65 80 78 85 94 93 92 94 94 97 98 98 100 99 100 100 100 100 92 78 88 86 83 81 84 94 97 100 100 100 100 100 100 100 100 100
30 35 40 60 62 50 63 69 76 85 80 75 62 59 60 71 78 93 95 96 96 96 97 98 99 100 99 100 100 100 100 100 95 87 88 89 86 96 98 100 100 100 99 100 100 100 100 99 100

GFSSGP_925_rhum_117.txt.gz
RH
15 20 14 11 13 8 8 6 4 4 4 5 6 6 6 6 7 12 12 27 36 39 68 54 55 54 50 48 50 54 55 61 60 51 51 56 63 65 67 72 72 78 85 79 75 77 78 75 72
22 14 14 12 12 10 7 5 5 5 4 5 4 5 6 9 9 12 18 27 40 45 60 74 61 54 49 49 51 55 57 62 61 54 54 61 63 64 69 70 76 75 78 78 80 84 79 70 70
22 15 14 12 12 12 8 6 6 5 6 5 6 6 7 11 14 19 23 40 47 47 54 70 65 55 50 51 52 55 57 63 64 60 57 63 64 64 67 70 78 73 74 78 80 89 74 71 74
16 12 13 15 13 9 9 7 7 6 6 7 7 8 8 16 17 23 27 43 49 47 51 66 66 57 52 50 54 59 61 62 65 66 60 65 65 63 67 72 73 72 74 82 80 75 73 71 73
16 12 16 14 13 10 8 7 8 10 9 9 8 9 8 12 15 25 30 46 52 48 52 70 66 59 55 52 52 55 59 63 66 67 66 66 63 63 67 71 73 71 76 83 82 74 74 74 72
13 12 16 14 11 9 9 8 9 10 9 9 9 10 9 12 14 22 32 44 61 54 55 84 82 64 60 55 53 52 51 55 62 65 66 65 63 63 66 72 74 73 77 84 80 73 74 73 72
15 13 16 14 12 11 10 10 11 11 10 10 10 14 11 11 16 14 20 41 62 66 62 76 95 88 64 59 55 55 53 53 56 62 66 66 64 67 70 74 76 76 78 81 78 75 74 74 73
11 13 15 13 13 13 10 10 10 11 11 12 11 13 13 14 15 13 14 24 58 71 70 78 91 88 87 80 61 59 56 55 59 63 68 70 72 73 75 77 78 79 82 82 78 77 77 76 76
12 14 15 13 12 12 9 11 11 10 15 12 12 14 13 14 12 11 13 16 37 74 80 83 90 89 78 76 82 66 64 62 65 71 74 76 91 91 90 86 85 77 83 86 80 78 78 78 80
14 14 13 10 10 12 10 10 10 11 12 13 12 11 12 12 11 12 13 14 16 36 76 85 97 90 78 66 76 83 82 79 81 83 88 88 77 75 72 79 88 80 82 88 86 79 78 79 88
12 15 11 10 9 12 12 12 10 13 13 11 12 11 10 11 13 13 13 14 14 23 54 85 92 92 95 74 65 72 70 74 77 76 76 79 72 69 73 73 87 94 89 97 95 84 93 86 65
11 10 10 10 9 12 13 11 11 10 11 9 9 9 11 12 12 11 12 12 14 18 41 66 81 94 98 86 66 64 59 66 67 71 75 71 70 70 70 69 77 80 84 85 87 84 80 73 66
8 9 7 7 9 11 10 10 10 9 7 7 7 11 11 11 11 11 10 12 13 16 24 47 71 79 87 93 82 85 72 64 62 64 70 68 63 66 72 62 68 73 69 77 80 79 78 71 70
9 9 10 8 9 8 10 9 8 7 7 10 9 9 9 8 8 9 10 11 12 14 15 20 33 67 75 82 82 85 82 62 72 70 74 74 65 72 66 64 57 60 59 72 74 78 79 76 78
10 11 8 7 7 8 9 12 10 8 8 11 9 8 8 7 7 7 7 9 10 11 12 16 21 32 59 75 75 79 75 73 62 68 80 86 83 72 75 78 59 53 54 68 73 80 83 82 81
12 12 13 8 9 8 11 12 6 8 9 10 8 8 7 7 6 7 8 9 9 9 11 14 17 22 32 47 60 69 71 71 64 62 75 87 92 77 76 83 76 57 55 68 75 79 82 84 83
11 15 14 10 9 9 10 10 7 7 9 9 9 9 8 7 7 7 9 11 11 15 21 24 29 28 27 32 49 61 66 71 66 60 70 76 92 92 77 80 86 74 62 70 77 81 83 82 78
15 12 10 11 8 8 10 11 9 7 7 9 9 8 8 8 8 23 30 36 37 38 40 41 40 44 42 34 34 48 56 63 72 66 60 71 79 88 90 74 86 86 79 76 80 82 85 79 77
14 16 14 10 8 9 11 12 9 7 6 6 6 6 6 13 26 30 35 38 43 45 48 46 48 49 50 46 28 31 52 57 63 71 64 62 66 78 85 80 81 93 94 92 88 81 81 82 79
17 16 14 10 9 11 14 12 8 7 6 6 7 8 23 29 28 31 35 39 44 48 51 54 53 52 53 49 45 34 30 40 52 58 64 65 65 70 80 79 69 91 94 98 93 91 84 83 83
15 15 15 14 12 10 10 11 9 7 7 8 22 27 27 32 35 34 34 38 42 47 52 56 59 60 59 60 58 50 47 37 44 58 62 63 67 70 78 78 73 71 91 95 97 97 92 91 89
17 11 13 15 16 18 13 20 14 11 10 15 26 34 38 38 35 36 38 40 43 45 51 56 60 65 64 63 62 59 52 40 33 50 63 60 66 70 76 80 80 76 92 92 94 94 97 91 95
18 14 17 17 18 20 17 18 15 11 11 23 38 41 41 38 39 40 42 45 47 46 51 58 65 68 68 69 72 72 63 55 50 42 54 63 65 73 76 80 82 83 94 94 94 96 100 98 89
14 17 19 19 21 30 21 19 16 26 48 43 43 43 42 41 41 42 45 50 52 54 57 63 67 68 70 74 77 81 81 71 62 54 46 59 68 71 79 81 85 89 94 95 95 98 98 98 94
20 26 35 35 31 31 18 18 16 39 43 48 48 46 45 45 46 48 50 55 60 63 65 68 71 74 74 77 80 85 87 85 75 67 60 58 66 72 78 84 91 92 94 93 96 100 98 96 98
17 23 33 39 32 24 12 21 28 38 37 40 44 47 50 52 52 55 58 62 67 71 73 76 79 81 82 86 88 90 94 95 84 71 64 61 58 66 78 88 91 92 92 94 98 96 98 98 99
19 24 20 31 28 35 23 15 31 42 48 50 54 53 59 59 63 64 65 70 73 78 81 82 88 88 90 95 98 98 99 99 96 79 68 61 61 58 76 90 96 96 98 94 98 99 100 99 99
25 18 35 34 54 45 24 20 66 90 75 66 67 60 62 64 68 70 73 78 82 91 90 88 94 91 95 99 100 100 100 100 99 93 74 64 61 61 73 93 100 100 100 100 97 99 100 100 98
22 33 29 29 44 55 55 81 88 88 86 82 64 56 68 70 72 90 91 86 95 94 94 92 96 95 97 100 100 100 100 100 100 97 81 73 65 66 74 89 100 100 100 100 100 99 100 100 99
22 26 30 53 45 52 43 56 69 78 72 66 68 66 54 64 66 80 89 92 95 97 97 97 98 98 100 100 100 100 100 100 100 97 75 71 73 69 75 83 90 96 100 100 100 98 99 100 98

GFSSGP_925_rhum_123.txt.gz
RH
15 11 21 19 25 27 25 17 10 10 9 6 5 6 7 10 18 48 32 39 43 50 48 52 50 44 46 48 50 48 49 54 52 45 42 45 45 47 51 57 60 60 65 70 69 68 74 72 61
16 24 25 23 30 34 28 14 10 8 7 6 5 6 7 21 20 28 34 44 44 53 52 51 53 50 48 48 51 51 53 55 56 49 45 47 48 49 53 59 63 66 77 80 82 76 79 86 70
20 28 25 30 33 34 26 11 9 8 8 7 6 7 8 24 25 29 36 46 47 57 60 51 52 56 53 48 50 52 54 56 59 56 48 51 53 53 56 60 63 71 77 71 72 74 77 69 71
24 22 23 28 31 25 19 14 8 9 9 7 8 9 18 20 23 31 38 39 53 62 64 61 54 56 56 52 53 57 59 60 62 59 50 54 57 55 57 62 69 71 70 68 82 83 73 67 68
26 27 30 30 27 20 15 13 9 10 10 11 9 10 21 19 19 28 35 43 64 67 69 67 64 57 56 52 55 59 62 62 63 58 53 58 60 59 61 64 69 69 71 73 78 84 73 68 70
28 26 32 33 26 17 14 11 11 14 14 15 15 11 24 16 15 14 24 47 51 71 69 67 68 60 55 52 55 60 64 67 64 63 58 62 64 62 61 65 71 72 72 76 79 75 73 72 72
22 27 30 26 23 19 14 12 14 14 14 17 13 16 23 19 14 12 15 22 40 62 77 70 67 64 58 53 57 63 67 68 67 67 65 64 67 65 63 68 73 76 72 76 83 80 75 73 69
20 23 25 22 22 20 13 12 12 13 15 13 13 18 19 19 12 11 12 21 44 55 73 77 73 72 62 56 59 62 68 68 69 67 70 65 69 68 65 70 74 76 74 76 76 77 75 74 69
15 28 32 25 19 16 12 14 12 10 12 12 13 13 14 13 12 12 13 13 46 63 71 85 81 78 70 64 58 64 64 63 65 69 71 72 74 72 68 70 75 77 77 76 77 78 73 74 72
20 29 27 20 15 15 12 14 14 13 14 14 15 17 10 11 13 16 16 15 13 38 66 80 87 81 76 70 68 62 61 63 62 64 77 79 74 72 69 71 75 78 79 82 81 81 78 75 72
14 22 18 14 14 13 12 12 12 14 15 15 15 15 13 15 14 16 14 13 14 17 46 65 74 81 79 81 78 67 64 62 65 67 72 80 81 77 75 76 78 83 84 84 86 88 82 79 75
13 12 13 12 12 10 10 9 12 12 14 11 10 11 11 14 14 13 13 12 12 12 23 53 72 73 75 79 88 77 66 64 66 73 70 81 87 92 87 81 78 78 82 81 82 85 81 74 74
12 12 10 11 10 11 10 10 11 11 10 9 9 9 12 11 11 10 11 8 9 13 24 35 51 62 73 76 77 86 80 72 65 66 81 74 82 88 90 84 83 81 79 81 80 82 84 74 68
12 13 13 11 10 10 10 10 11 10 9 9 9 10 10 11 9 9 8 11 28 40 45 43 45 60 75 62 68 76 80 85 80 72 70 80 74 79 82 78 75 80 80 77 80 80 80 75 63
13 15 14 13 12 12 10 11 10 10 10 10 10 11 11 10 9 33 41 42 46 48 48 47 49 49 49 50 53 72 69 72 75 79 75 70 78 75 79 78 70 75 76 72 79 79 82 79 70
16 17 21 14 12 12 11 15 10 10 9 10 13 12 12 9 38 38 39 42 45 48 48 49 50 51 51 52 51 50 47 65 72 70 74 80 74 78 73 78 71 77 71 74 80 81 90 84 74
21 30 25 20 14 10 10 13 11 11 10 12 11 13 11 12 39 38 38 39 41 42 44 47 49 50 51 52 52 53 51 50 51 70 69 70 74 71 76 73 73 69 75 76 77 81 83 85 79
24 25 22 21 15 16 15 16 13 11 10 12 13 14 14 38 41 38 42 45 46 48 47 46 48 51 54 57 54 54 59 58 57 63 70 68 68 72 69 74 75 71 74 79 78 79 82 80 78
19 22 22 18 17 17 17 16 13 12 12 14 13 17 36 40 37 40 45 46 46 47 50 53 53 56 59 64 66 67 70 67 61 57 57 76 65 72 74 68 74 75 69 77 84 82 78 90 81
25 24 23 19 17 17 17 17 14 13 13 14 20 43 45 43 41 40 44 49 50 54 56 59 60 63 62 64 67 69 69 69 70 64 57 49 69 73 69 72 74 77 73 80 82 85 91 90 88
21 21 22 22 18 16 18 19 17 14 13 39 40 41 43 46 48 46 47 52 52 58 62 65 65 67 68 66 66 71 72 72 73 72 73 66 64 66 73 70 69 75 87 85 81 88 86 88 97
22 18 19 21 24 32 19 33 22 16 26 46 45 49 51 50 49 48 52 55 59 63 65 67 69 70 68 72 74 75 76 77 75 79 80 80 73 68 66 75 69 66 80 95 82 88 91 88 88
22 20 22 22 26 28 24 34 24 19 54 52 50 52 54 53 54 55 58 63 64 68 71 72 73 74 74 74 76 78 78 78 77 77 80 82 80 76 66 68 78 82 70 85 94 82 100 94 84
18 20 26 28 30 42 26 30 42 64 57 57 55 54 55 58 61 62 64 67 70 72 74 76 76 79 80 81 80 81 82 81 80 79 82 83 86 84 77 68 68 76 84 72 75 91 91 86 82
19 26 60 63 61 51 26 30 70 58 59 58 62 60 57 63 67 68 65 69 73 76 78 82 82 82 83 84 85 86 86 84 84 84 85 85 88 89 88 82 69 69 74 76 77 83 78 98 87
28 30 53 64 62 48 27 40 71 57 54 55 56 60 62 68 67 73 76 80 83 84 86 88 92 92 90 93 94 95 95 93 92 90 88 90 89 92 93 90 84 80 70 74 71 76 77 81 90
27 35 26 39 37 46 38 58 70 59 65 62 63 65 76 79 79 85 84 86 89 90 93 97 98 97 96 99 100 100 100 100 99 98 97 95 93 91 92 94 88 80 81 73 71 77 75 79 70
25 24 54 65 65 61 46 47 87 89 87 82 72 76 80 83 89 88 88 91 93 97 97 99 99 98 99 100 100 100 100 100 100 100 100 99 98 98 97 99 97 88 88 79 73 73 70 72 83
32 40 39 47 49 69 77 76 90 93 84 80 69 66 82 89 94 93 93 95 96 98 100 100 100 99 100 100 99 100 100 100 100 100 100 99 99 95 98 99 100 90 94 83 78 74 74 86 97
27 31 41 72 53 52 58 76 80 86 79 67 65 65 68 83 94 94 96 94 96 98 99 99 99 100 100 100 100 99 100 100 100 100 100 99 100 100 100 100 99 99 96 88 77 65 73 54 90

GFSSGP_925_rhum_126.txt.gz
RH
10 16 23 20 24 31 27 19 12 9 8 6 5 9 21 20 30 47 38 47 48 48 50 51 49 53 52 50 52 53 51 50 46 43 44 42 43 48 50 56 63 68 69 68 65 64 64 67 70
15 23 24 28 32 38 31 20 8 8 7 6 6 8 18 31 31 35 37 53 50 49 51 53 51 51 56 53 50 51 54 54 50 45 46 45 44 47 54 57 60 64 74 74 68 69 68 67 71
22 27 26 32 39 39 31 14 10 9 7 8 8 8 20 30 32 38 50 52 55 55 52 51 50 52 53 55 52 51 54 58 55 48 48 49 46 47 52 58 62 69 81 84 80 77 75 70 70
26 24 27 32 34 29 22 20 16 9 8 8 9 19 24 28 32 41 40 51 55 66 63 56 52 52 54 53 53 51 54 60 59 54 50 52 50 49 53 58 60 67 69 72 83 85 76 69 71
26 32 34 33 31 24 19 17 14 17 13 15 11 25 25 20 38 44 39 31 56 68 66 63 60 59 57 52 50 52 55 61 63 60 52 54 55 52 54 58 63 65 67 70 84 84 74 70 74
34 31 36 37 29 22 17 16 14 16 17 16 16 26 24 18 14 30 26 26 33 63 70 70 71 63 58 56 52 55 57 62 65 62 53 56 59 56 55 58 63 64 68 72 76 79 72 71 76
27 31 33 28 26 22 16 14 15 15 18 16 14 27 22 19 15 16 20 36 32 55 64 68 68 66 62 57 53 58 60 61 67 62 55 59 62 61 59 60 64 66 67 69 76 75 73 71 74
25 28 26 25 25 23 14 14 14 13 16 15 14 21 22 19 13 14 15 36 55 52 69 65 68 71 66 60 56 55 64 63 72 70 63 62 66 66 62 62 65 67 68 68 71 75 73 72 70
19 30 36 27 21 17 13 13 13 12 13 13 15 15 16 14 12 11 12 21 42 69 71 81 76 76 74 67 60 62 62 73 78 77 73 70 73 73 68 64 66 69 69 69 73 74 73 73 70
21 33 29 23 20 17 14 13 13 13 16 16 14 15 12 16 15 16 15 14 14 19 72 81 85 79 77 72 67 64 68 67 75 83 83 78 77 77 73 67 69 72 73 71 73 75 73 74 72
15 22 19 18 17 16 12 12 11 12 14 14 13 14 13 14 14 15 13 14 14 20 51 52 78 84 80 78 71 66 67 72 72 74 80 86 76 84 80 75 78 81 83 83 81 80 78 75 74
15 13 14 14 11 11 12 9 10 11 13 12 11 10 11 14 14 13 13 17 39 53 67 98 76 95 95 86 86 76 71 67 70 70 77 84 85 82 87 80 79 84 87 86 83 80 74 74 73
13 12 12 12 12 11 10 11 11 12 10 10 10 10 12 13 11 13 38 47 49 51 53 52 59 71 76 81 84 93 94 87 76 74 72 78 87 85 85 87 84 86 88 85 86 82 78 80 77
16 16 14 13 13 13 12 12 10 11 10 9 10 10 10 15 38 47 49 53 54 53 54 52 47 47 48 50 51 54 64 88 95 84 75 69 72 87 89 86 89 88 88 85 80 78 78 80 79
16 16 16 13 13 14 12 14 13 10 9 11 12 9 13 47 46 50 50 52 50 50 47 47 45 42 41 43 46 47 50 56 62 93 96 90 68 69 79 97 91 88 86 84 85 81 79 83 83
18 18 21 16 13 14 14 21 13 10 10 10 11 14 36 45 46 48 50 53 51 49 49 48 48 44 42 39 34 38 42 47 52 60 73 93 96 89 74 77 92 88 89 85 89 88 88 85 86
22 27 25 22 16 14 14 14 12 12 11 11 14 15 45 48 49 50 52 53 55 55 56 54 53 48 46 46 47 37 33 35 41 48 54 62 97 82 95 77 84 89 83 80 90 96 89 92 89
26 26 24 26 18 18 18 18 15 13 12 13 15 39 49 50 51 50 53 55 55 55 57 58 59 57 55 50 45 48 45 36 37 45 62 53 61 71 94 91 83 79 90 82 89 96 97 90 92
23 25 27 24 18 21 22 21 14 12 23 41 50 50 50 50 46 51 55 58 61 61 60 63 62 65 62 65 65 62 69 66 55 53 54 62 62 65 76 96 66 64 88 79 90 98 99 100 98
28 31 31 21 18 18 20 20 16 25 51 51 54 55 55 55 52 53 58 62 65 67 68 68 67 66 65 70 70 71 71 67 67 60 62 67 62 60 67 73 96 80 86 82 76 88 98 100 100
27 29 24 24 21 18 19 22 18 35 46 49 53 54 56 59 61 60 63 66 68 70 72 73 74 71 72 73 72 72 67 66 71 73 72 72 76 64 62 63 70 95 58 78 86 72 86 78 87
26 19 21 22 26 33 21 38 26 43 57 57 59 63 65 65 64 64 66 68 70 73 75 77 78 78 76 80 81 81 82 81 77 79 78 78 77 76 69 66 68 76 99 94 77 73 81 78 76
23 18 22 22 28 29 28 34 28 49 66 68 63 62 67 67 67 67 68 69 73 78 81 84 84 83 83 82 83 85 84 83 82 83 82 80 79 79 75 73 70 66 74 95 74 78 88 78 75
19 23 30 30 34 45 28 33 37 76 69 69 65 64 68 67 69 72 74 78 81 85 88 89 86 88 88 88 89 90 91 89 87 85 84 84 82 83 89 83 76 84 73 70 91 85 84 79 73
21 34 57 58 63 56 32 37 76 71 67 69 72 73 72 73 79 82 83 85 88 89 88 83 86 90 89 90 92 95 97 97 96 92 88 85 85 86 89 91 91 86 83 78 83 96 84 82 89
28 36 56 63 68 57 34 45 84 64 61 63 67 74 76 82 84 87 86 89 89 90 88 95 95 93 90 92 94 97 100 100 100 99 97 94 91 90 92 93 93 87 76 68 70 93 93 84 81
27 37 31 42 43 58 47 88 67 66 74 74 70 77 86 90 89 90 89 86 90 91 92 100 98 97 93 95 97 100 100 100 100 100 100 100 99 96 93 95 94 98 97 92 88 96 95 85 80
26 27 45 66 59 60 50 52 89 92 85 74 80 90 93 89 90 90 89 91 94 93 98 100 99 99 100 100 99 100 100 100 99 100 99 99 99 99 99 97 99 99 100 100 92 86 94 87 89
34 37 39 49 55 63 76 76 88 90 90 85 74 80 93 94 96 95 93 94 95 97 99 99 99 99 100 100 100 100 100 99 100 100 100 100 100 100 98 100 100 100 99 100 100 92 96 94 88
31 37 46 64 51 57 53 64 80 87 87 76 72 69 70 84 93 94 96 96 95 98 98 98 100 100 100 100 100 100 98 99 99 100 100 100 100 100 100 100 99 100 99 100 100 98 97 98 84

GFSSGP_925_rhum_129.txt.gz
RH
14 18 27 20 24 31 26 22 15 10 8 6 7 21 29 28 32 35 42 52 51 47 52 55 56 55 55 55 55 53 49 45 41 43 42 41 44 48 52 59 67 61 57 69 72 71 64 60 63
20 24 20 30 33 30 25 23 10 10 8 7 11 16 29 33 34 38 46 57 57 55 53 52 52 56 56 58 59 56 53 48 44 45 45 44 46 49 55 66 72 73 69 69 72 72 70 63 67
22 24 26 37 45 32 30 19 21 17 11 8 8 20 26 37 37 44 53 56 54 56 57 57 52 50 52 55 59 59 57 53 48 47 48 46 46 48 53 58 60 66 71 68 69 76 77 68 72
24 24 29 34 33 29 24 22 19 17 9 11 15 27 27 26 36 42 46 55 55 60 60 57 57 55 54 52 53 56 60 58 53 49 50 48 48 48 54 58 61 67 77 74 72 75 77 71 76
24 32 36 36 31 26 22 19 18 19 17 19 20 28 25 29 45 35 24 34 56 66 67 62 56 56 57 57 53 51 56 61 59 53 51 51 51 50 53 57 61 67 67 71 80 76 72 69 75
29 33 39 38 30 24 20 16 15 18 20 17 25 26 24 20 31 53 45 41 57 65 67 66 66 65 63 60 55 54 54 60 63 60 55 54 54 54 55 58 62 65 65 68 79 78 71 68 74
28 32 34 31 27 21 14 15 16 16 18 16 19 28 23 19 19 37 55 60 65 65 64 69 70 68 65 62 58 55 58 60 65 66 61 57 59 58 57 61 66 65 64 65 71 75 70 70 70
28 29 28 27 26 22 14 12 14 13 14 16 17 22 23 18 14 14 22 49 57 60 69 72 74 75 71 67 65 61 60 62 64 68 65 61 63 64 62 64 67 68 66 63 66 71 72 72 68
21 34 36 28 24 20 14 12 11 13 13 14 17 15 15 15 14 14 13 23 48 27 76 80 78 77 77 74 69 68 72 72 77 81 74 68 74 70 71 73 71 73 70 69 71 72 75 74 70
23 35 31 25 21 20 16 12 12 11 13 14 13 15 10 15 14 16 14 22 36 34 67 97 91 91 89 85 78 73 76 88 90 85 83 86 88 84 75 77 77 79 74 73 73 76 78 78 75
18 22 19 17 18 19 16 12 12 12 14 11 11 13 11 17 16 19 38 58 72 75 90 98 97 100 100 99 98 94 88 79 93 100 100 100 100 98 92 81 85 91 88 84 81 84 84 80 75
14 14 14 14 12 11 12 11 10 11 11 12 12 11 10 12 32 56 62 61 61 59 56 59 65 78 83 90 92 99 98 100 93 88 96 98 98 97 99 93 83 93 94 92 85 84 84 84 80
14 15 16 15 15 14 12 12 11 11 11 11 12 11 15 45 57 58 59 56 56 54 54 50 48 50 52 55 56 59 70 90 99 99 98 100 100 98 98 99 98 84 98 99 99 93 85 86 88
18 18 16 15 14 15 13 13 10 12 10 9 9 21 54 55 56 56 58 60 58 55 54 56 47 45 46 43 43 46 49 56 68 95 100 100 99 90 79 93 96 96 97 100 100 100 99 87 82
17 17 18 15 13 14 13 16 14 12 10 9 15 52 52 53 55 58 59 61 62 62 57 55 51 43 41 43 44 40 37 39 45 57 71 70 79 98 95 88 97 78 98 99 98 100 100 100 85
20 20 23 16 15 15 15 21 15 13 11 12 58 55 55 53 54 56 59 61 59 58 56 51 49 45 42 43 40 39 41 38 35 34 39 47 61 77 92 100 97 90 78 95 100 99 98 100 99
25 27 26 23 18 17 14 16 15 14 14 17 56 55 54 56 54 57 60 62 61 60 60 58 56 51 45 41 44 41 40 39 40 40 37 37 44 53 80 97 98 92 98 97 80 97 99 99 99
27 27 26 26 21 20 19 19 18 34 46 56 59 58 57 57 57 59 62 63 63 62 61 64 64 65 61 55 46 46 52 48 43 49 45 43 41 66 64 77 98 90 90 100 98 88 85 100 100
24 27 30 27 22 23 20 22 16 53 60 64 63 63 62 60 56 60 63 65 64 66 67 70 69 68 70 76 73 62 64 68 62 56 55 56 68 61 67 69 77 85 95 92 94 96 99 99 100
32 34 36 31 25 21 21 20 65 60 62 63 65 67 66 65 63 61 65 67 69 72 75 77 78 78 76 77 80 80 76 64 67 64 63 55 56 73 68 61 70 71 95 99 89 100 98 94 97
35 36 35 30 22 21 21 25 47 59 57 57 62 64 66 69 69 66 66 69 74 78 82 85 86 84 83 83 83 81 78 77 73 69 77 72 67 62 78 69 65 74 78 100 93 98 97 96 91
42 25 24 23 26 33 22 40 30 66 69 65 67 74 76 73 69 70 72 75 80 85 91 92 89 87 87 88 90 90 89 88 85 83 81 84 81 77 76 78 61 66 76 78 99 92 95 96 93
26 21 21 24 27 30 30 35 48 66 75 74 71 72 75 74 76 78 78 81 85 90 90 85 82 87 90 91 92 93 94 95 96 94 92 89 87 84 80 80 85 74 76 84 80 100 87 95 92
20 23 31 38 36 43 32 34 38 78 74 76 72 74 76 78 82 81 83 87 89 87 84 81 91 91 86 89 90 91 92 94 94 94 95 96 94 90 89 86 85 82 90 95 91 90 96 94 96
24 31 54 54 59 52 37 40 40 78 72 71 78 81 81 85 85 88 89 83 83 86 85 94 94 88 89 88 89 90 92 96 100 99 98 97 96 94 89 91 93 92 86 80 82 84 94 92 100
30 35 52 53 69 47 37 48 58 71 69 72 75 81 82 87 89 90 87 81 86 84 90 100 95 94 96 98 96 95 96 100 100 99 99 99 99 98 98 95 93 98 98 90 82 72 69 77 90
30 37 33 41 48 61 48 70 70 72 79 77 78 85 94 91 93 94 84 86 89 92 96 100 99 99 100 100 100 100 100 100 100 100 100 100 99 100 100 99 94 92 97 99 99 97 93 94 94
27 29 48 66 61 63 52 48 70 92 88 81 85 94 95 91 93 94 85 94 94 98 99 100 97 100 99 100 100 100 100 100 98 99 99 99 99 100 98 99 99 100 97 96 98 100 99 91 80
34 36 41 50 53 61 54 71 75 84 87 86 82 92 96 94 96 97 96 95 96 98 98 97 98 100 100 100 100 100 99 98 98 98 99 100 100 100 100 100 100 100 100 99 99 97 99 99 94
30 40 46 71 51 60 60 56 81 87 88 81 78 78 81 91 95 96 94 92 96 98 96 98 99 100 100 100 99 98 98 98 98 98 98 100 100 100 100 100 100 100 100 100 100 99 96 97 98

GFSSGP_925_rhum_132.txt.gz
RH
20 23 26 19 22 28 25 20 17 15 12 9 16 14 23 32 35 33 46 56 53 51 51 52 55 58 57 53 51 49 47 48 48 47 52 57 61 61 63 66 72 87 91 78 66 70 68 57 60
23 26 19 31 29 26 25 23 16 19 13 11 18 26 35 38 36 40 46 54 57 55 53 55 56 57 57 55 55 53 50 48 50 49 50 55 54 50 52 53 58 65 70 68 69 67 59 60 66
24 22 26 38 44 30 28 23 22 21 19 10 14 27 32 42 39 46 47 54 57 59 58 57 56 58 57 56 56 57 54 49 50 50 49 50 50 48 50 58 62 56 59 67 72 65 62 60 69
23 24 31 34 31 28 26 23 21 21 15 22 22 29 30 30 37 41 55 64 64 63 63 64 62 59 59 59 58 58 56 54 52 53 52 52 52 54 58 62 64 64 67 71 77 70 65 62 72
22 32 36 38 30 27 24 20 18 22 22 23 26 28 31 30 48 42 47 61 71 65 65 64 62 60 61 63 65 64 62 60 56 54 55 55 56 58 60 62 62 69 78 76 81 74 70 66 73
28 33 36 37 30 24 20 17 16 20 18 18 26 26 24 19 25 46 52 61 69 74 73 71 68 69 68 66 63 63 64 66 64 59 60 61 60 60 59 61 64 70 71 70 76 74 70 67 74
28 32 34 36 29 22 14 15 16 15 16 17 21 28 24 18 20 35 49 57 76 79 81 81 80 76 72 72 68 64 64 66 69 68 64 66 65 63 62 64 68 68 65 70 80 78 70 67 74
30 31 29 28 29 23 15 12 14 14 14 15 16 21 22 19 15 17 64 62 72 68 88 88 86 83 80 80 78 73 69 71 79 85 79 73 78 75 70 70 72 73 69 69 78 79 71 70 74
23 35 34 27 28 22 15 15 11 13 12 15 15 14 11 9 14 16 19 20 26 55 96 100 99 97 95 91 89 89 86 81 93 97 96 90 87 87 83 78 73 75 75 72 73 76 74 70 74
26 36 31 25 22 21 18 15 13 12 12 13 13 14 10 13 20 45 67 74 71 80 96 96 95 97 99 99 98 91 90 99 99 98 98 99 95 93 90 86 82 77 80 82 80 80 78 76 73
20 24 21 16 17 16 17 12 12 12 12 12 11 12 16 43 60 68 69 70 71 68 59 70 74 75 81 87 94 92 91 90 96 98 98 100 99 98 99 92 87 86 84 88 92 92 88 81 74
13 14 15 15 13 15 13 13 11 13 11 10 13 23 58 66 66 66 67 66 64 64 65 55 54 55 56 59 62 67 81 96 100 100 98 98 99 98 99 99 98 93 90 90 92 96 96 88 80
14 17 18 16 17 16 14 15 13 12 12 13 54 58 62 61 61 61 62 62 62 60 56 56 47 46 49 48 49 50 53 60 81 100 100 98 98 96 94 95 99 99 100 99 100 99 100 99 88
19 19 20 16 15 15 14 15 12 14 13 55 57 60 59 58 59 60 61 62 60 56 52 48 46 42 40 41 42 42 43 45 48 59 80 92 96 96 99 100 96 100 100 100 97 99 98 98 97
18 19 19 16 14 14 15 16 14 15 53 61 60 57 56 55 58 62 63 64 61 56 53 48 47 40 37 36 37 37 36 40 41 42 48 56 65 73 85 93 95 99 99 99 95 100 100 100 99
21 22 23 17 19 16 15 19 15 21 58 67 61 58 58 56 59 61 63 62 60 56 55 53 48 44 41 40 38 38 40 44 38 33 40 44 44 49 66 80 73 56 79 99 100 98 99 99 99
28 28 26 24 19 18 19 19 27 40 55 64 66 62 58 59 59 62 64 64 62 63 62 60 58 55 49 45 45 42 42 48 41 42 43 36 39 59 70 64 74 96 82 76 99 98 99 100 100
29 27 27 26 20 24 23 24 44 60 62 69 71 67 65 64 64 63 64 64 64 67 68 70 70 69 65 61 52 45 50 52 50 53 45 47 61 61 64 72 61 83 88 78 48 91 97 100 97
24 27 30 28 24 25 28 25 60 63 68 72 72 71 69 67 62 63 65 66 68 73 78 83 83 82 79 81 81 71 72 68 66 66 67 68 53 52 56 58 55 56 65 98 98 91 94 96 97
32 34 39 33 28 29 28 26 65 65 68 68 71 74 74 71 67 65 68 71 75 81 83 84 83 84 84 88 90 88 86 76 74 73 71 68 68 60 58 59 58 53 61 68 87 98 84 85 78
36 39 37 37 24 22 22 29 67 65 64 62 67 70 72 74 76 73 73 78 83 89 89 88 82 83 84 89 91 93 92 90 89 88 85 80 84 76 66 64 71 63 66 74 77 99 96 82 86
41 34 35 32 26 34 24 41 33 72 72 68 70 78 80 79 77 76 80 84 89 89 85 82 84 86 90 87 90 89 90 89 91 97 97 96 90 92 83 77 73 73 62 69 67 72 100 98 86
38 23 23 24 27 31 31 37 43 74 77 76 72 74 80 81 83 84 86 89 85 84 83 86 91 88 85 86 86 88 89 88 91 92 92 92 93 98 95 89 86 88 90 87 87 86 80 100 91
23 22 31 42 38 48 36 36 40 80 66 77 74 77 80 84 85 84 88 80 81 82 84 94 94 89 90 97 92 86 87 85 84 86 87 93 95 94 96 92 88 92 91 88 93 97 89 99 98
25 32 55 56 56 49 38 42 34 69 70 68 75 82 85 85 88 92 85 84 83 88 95 98 95 97 99 97 95 99 100 100 98 96 97 96 93 94 97 96 95 91 96 98 90 92 95 99 100
32 37 52 51 62 50 40 51 42 72 69 74 77 83 84 87 91 95 84 90 88 95 96 99 100 97 98 96 98 100 100 100 100 100 100 100 98 97 97 100 99 98 90 94 99 99 88 78 89
33 39 34 41 48 64 43 43 72 77 82 85 87 86 91 90 93 95 86 94 96 96 97 100 100 99 99 98 100 100 100 100 100 98 98 100 99 100 99 97 98 100 99 98 93 99 100 98 100
28 32 50 67 63 63 54 51 54 90 87 88 90 93 94 89 92 94 94 94 90 94 95 97 100 100 100 100 100 100 100 99 96 96 97 98 99 99 99 99 99 98 100 99 100 96 94 98 99
34 38 46 51 54 68 62 71 70 70 81 89 89 91 94 91 98 97 94 86 85 84 90 97 99 100 100 100 98 99 97 97 96 97 97 98 98 98 99 100 100 100 100 100 100 100 99 97 97
31 36 47 71 50 59 69 57 86 88 91 83 86 87 94 93 94 96 89 86 85 90 91 99 97 93 97 94 97 97 98 96 97 97 97 97 99 98 100 100 100 100 100 100 100 100 100 100 99

GFSSGP_925_rhum_135.txt.gz
RH
22 25 25 18 16 17 20 17 16 16 15 19 13 19 24 34 34 37 44 60 61 58 59 57 59 58 57 53 48 46 49 50 52 52 52 52 51 58 61 62 71 80 86 97 74 71 70 58 58
24 26 19 21 17 17 18 19 17 17 15 13 18 27 30 39 35 38 43 58 60 59 58 58 60 61 62 60 55 51 48 51 54 58 58 55 58 58 60 60 66 83 82 63 66 68 66 58 62
23 20 19 24 25 20 21 17 17 17 16 14 22 27 32 39 38 44 72 65 63 64 62 61 59 60 62 64 63 60 53 50 54 58 63 63 62 56 54 57 62 70 64 56 61 65 59 61 66
22 18 22 22 25 24 19 16 16 19 17 19 22 30 31 36 44 67 62 67 67 66 66 63 62 61 62 64 64 65 63 56 56 56 61 66 63 56 52 54 58 57 54 57 59 60 61 63 68
22 21 24 26 26 23 20 18 16 17 20 20 22 29 32 29 40 54 64 72 76 75 72 69 67 66 68 69 71 71 67 65 61 61 61 61 60 59 57 60 62 60 61 64 64 61 65 63 71
20 23 23 24 24 20 17 14 14 14 16 18 22 23 23 21 25 49 64 82 86 85 80 75 74 76 77 76 76 75 72 69 67 66 68 69 66 63 65 72 73 70 69 70 67 67 66 66 71
22 23 28 27 23 19 15 14 13 13 14 15 20 25 22 17 22 59 82 80 85 92 97 95 93 90 86 82 80 80 90 74 73 73 73 76 71 70 78 77 75 67 73 80 73 69 67 68 71
21 22 27 26 24 21 14 13 12 12 12 14 14 21 20 19 20 31 37 49 65 100 98 100 100 100 98 95 94 88 83 84 86 78 81 80 80 78 85 84 77 72 76 73 75 77 74 69 71
20 23 26 25 23 21 15 14 12 12 11 13 14 15 18 31 28 32 54 62 76 87 90 91 93 97 99 99 100 95 86 83 83 86 86 85 94 97 92 92 84 80 80 78 78 84 81 73 73
20 25 25 22 21 15 15 15 13 12 11 12 12 15 45 53 57 59 62 65 69 74 72 68 71 76 83 88 98 100 100 98 96 94 98 98 98 98 94 88 76 75 78 82 78 83 89 83 91
19 21 21 16 15 13 14 11 11 12 10 14 14 38 54 54 58 60 59 61 63 65 63 51 52 57 61 63 69 73 85 97 99 100 98 95 95 95 96 99 98 97 90 95 92 96 97 96 95
14 14 14 13 14 14 14 11 11 12 29 45 52 53 52 52 54 55 57 56 56 57 60 50 43 41 45 48 52 54 59 68 98 100 100 99 96 91 90 94 98 99 99 96 94 96 99 96 89
14 16 16 15 16 15 14 14 13 21 47 47 50 51 52 51 52 53 53 53 53 54 58 50 44 36 35 36 38 39 43 50 56 77 92 97 100 100 96 92 92 92 97 99 99 100 98 98 90
19 18 17 16 15 15 15 14 13 36 44 48 48 51 50 50 52 52 53 55 55 56 58 58 54 41 36 34 33 33 34 39 41 41 52 69 84 87 98 98 99 96 93 94 99 99 99 100 99
18 18 16 16 15 14 14 15 24 48 45 50 49 49 49 50 52 55 57 56 59 57 61 65 61 50 43 40 38 36 35 36 39 34 38 42 44 46 65 82 95 84 97 96 96 100 100 98 99
19 21 19 16 18 17 15 18 37 48 46 53 51 51 51 52 54 56 58 57 59 62 65 66 64 60 54 56 58 45 44 42 40 35 40 38 36 46 87 92 89 85 86 47 61 63 90 100 100
24 22 24 20 19 17 19 21 46 45 49 54 53 52 51 51 52 56 57 60 63 67 71 72 76 76 69 58 58 61 62 63 51 55 46 42 52 63 72 91 93 96 97 100 93 60 45 76 99
26 25 25 24 19 20 23 22 50 52 50 56 54 54 52 51 52 57 59 64 68 72 76 77 77 81 81 75 74 68 68 70 72 72 71 83 64 49 70 80 67 58 84 96 99 95 70 49 60
24 26 27 25 22 26 26 24 33 54 54 56 55 54 53 53 54 57 62 66 70 73 76 76 75 80 80 76 77 73 73 75 72 76 79 83 82 84 67 72 75 80 77 83 92 99 99 96 98
30 32 32 29 27 28 24 24 44 53 56 56 57 57 56 54 52 58 61 67 73 75 78 74 74 80 81 79 80 83 82 79 82 83 85 91 90 90 86 82 82 83 86 84 82 92 100 99 94
33 33 34 31 27 21 22 21 42 55 56 57 59 59 59 60 60 58 64 70 73 74 77 74 80 80 78 80 74 75 76 75 76 80 83 86 91 92 95 93 90 88 89 85 85 87 94 98 94
38 30 30 33 26 27 23 27 24 49 54 56 57 59 61 62 59 61 66 69 72 74 75 78 86 80 77 82 82 82 81 78 79 82 84 87 92 94 93 98 96 92 90 89 85 80 83 96 94
33 30 27 24 25 28 26 26 31 59 45 48 54 59 63 63 62 63 70 71 73 74 77 83 83 82 86 92 92 88 83 80 82 83 86 89 88 88 90 95 96 96 94 94 92 92 92 87 98
25 24 30 35 30 36 27 26 21 38 36 53 55 60 65 64 62 67 73 73 75 78 81 84 85 86 90 93 88 90 90 90 87 89 87 88 90 90 87 91 96 98 96 96 99 95 91 84 86
25 31 41 40 41 36 31 31 23 31 52 52 54 62 66 65 63 65 68 71 75 78 81 84 89 89 90 90 91 94 93 94 96 95 95 94 96 94 92 94 93 96 97 98 95 98 98 98 100
32 33 39 45 41 30 37 36 26 50 56 61 62 65 69 66 65 66 71 75 76 79 82 87 93 92 91 93 95 95 96 96 96 97 98 100 100 100 98 97 98 97 99 100 99 98 98 99 97
34 33 30 34 43 45 29 30 43 65 65 66 66 70 72 70 67 70 74 76 72 77 84 93 96 94 96 97 95 94 97 98 98 100 100 100 98 98 97 98 99 98 97 100 100 100 98 96 99
30 28 41 46 50 46 33 34 41 64 56 67 71 72 76 74 74 75 78 76 71 76 82 89 92 96 100 98 96 97 100 100 99 99 99 99 98 98 98 98 99 100 100 99 100 100 98 98 95
32 36 41 40 41 44 48 60 75 68 58 66 69 73 80 78 82 85 83 78 84 83 89 93 96 98 100 100 100 100 99 97 97 98 97 98 98 97 97 97 99 100 100 100 100 100 100 100 100
31 34 38 47 41 42 48 58 62 69 78 69 69 68 71 76 80 78 84 88 90 94 97 97 94 94 100 99 100 98 97 97 98 98 98 97 97 98 98 98 99 100 100 100 100 100 100 100 100

GFSSGP_925_rhum_141.txt.gz
RH
20 19 15 12 13 8 8 9 8 8 9 11 10 18 25 25 33 47 38 45 50 59 78 82 62 57 50 49 50 52 52 54 58 57 60 62 63 66 65 65 71 83 82 81 73 70 75 73 72
21 14 14 10 12 10 8 10 9 9 8 12 14 14 21 34 26 30 37 48 50 52 62 83 72 68 63 58 54 53 54 54 60 66 66 65 62 66 69 72 73 78 84 88 78 73 76 70 63
23 13 11 11 10 9 11 10 10 8 7 8 12 14 20 31 27 35 43 45 49 51 73 95 86 80 77 74 71 65 60 58 59 68 70 68 64 65 70 73 74 78 82 84 76 74 82 71 63
12 10 10 12 11 12 11 10 9 9 6 6 10 26 25 27 33 40 45 49 56 70 81 95 92 86 82 84 81 78 76 68 62 64 74 72 67 64 65 71 74 75 80 83 74 71 77 73 66
11 10 13 12 11 11 10 10 10 9 10 9 11 21 25 27 44 52 73 84 89 95 99 99 96 97 94 86 85 88 82 81 77 70 69 72 71 70 71 64 69 74 75 78 71 78 80 71 68
12 11 14 12 12 11 9 9 9 11 11 10 13 19 22 33 47 63 76 89 94 93 94 94 96 98 100 96 88 90 89 83 82 80 73 69 69 73 74 66 64 68 74 76 63 66 74 78 72
14 13 13 12 12 12 11 9 10 10 11 14 13 18 23 35 49 55 66 76 84 88 88 88 89 91 96 99 98 96 94 84 82 79 79 74 72 70 67 66 64 63 65 65 68 68 72 74 74
12 13 13 12 12 13 10 9 9 8 11 10 10 16 21 25 39 49 54 58 67 74 79 81 81 82 81 82 95 96 98 97 94 88 84 78 76 73 71 73 72 68 70 68 70 73 74 80 78
11 15 12 12 13 13 10 11 8 8 8 15 18 22 23 25 27 30 34 42 49 55 66 71 73 74 71 60 72 76 81 88 96 97 95 92 86 81 84 81 78 80 73 73 71 77 81 81 83
13 13 13 12 12 13 11 10 9 10 9 14 19 21 22 24 25 27 29 33 42 47 53 61 66 68 65 56 62 61 62 71 90 98 94 97 98 95 79 79 80 78 79 77 75 76 78 83 78
12 15 14 13 11 10 10 10 8 10 11 16 20 22 22 23 28 28 27 32 36 43 49 54 59 64 64 58 55 55 54 59 66 73 88 89 97 100 99 96 90 83 79 79 77 80 83 83 73
13 11 11 10 10 10 11 10 10 14 23 20 22 22 23 24 26 26 30 31 34 39 47 51 54 59 61 58 53 53 51 52 58 61 63 79 83 87 92 94 97 95 92 84 85 84 87 80 72
11 9 9 9 9 10 10 10 11 18 18 19 21 23 24 24 26 30 30 32 34 36 46 53 52 59 60 55 61 58 53 49 59 54 55 70 67 65 72 78 84 87 89 89 93 90 87 82 74
12 11 10 9 10 10 11 10 15 21 19 20 20 23 25 27 29 30 32 34 36 37 43 52 52 59 62 58 62 60 51 53 51 52 53 66 70 64 62 60 61 65 68 91 98 93 99 97 94
11 12 9 9 8 10 10 11 12 19 19 22 23 25 26 26 29 32 33 33 35 36 43 49 49 56 62 57 58 54 49 56 51 50 52 59 64 68 69 65 58 54 62 80 85 91 92 98 96
11 10 10 8 10 10 10 12 20 19 20 21 23 25 27 28 30 32 33 33 33 39 44 47 52 56 62 57 56 53 50 56 50 49 51 54 62 70 71 61 55 54 67 66 66 80 71 84 82
12 9 10 12 10 10 11 15 20 18 19 21 23 24 25 27 28 33 33 35 36 42 46 47 51 56 60 53 51 48 48 48 47 49 48 52 64 67 71 65 60 63 65 62 56 55 67 70 70
12 12 9 10 11 12 11 11 18 20 19 21 21 23 25 26 28 35 37 42 40 45 48 48 50 57 57 48 47 45 44 44 47 47 50 56 62 68 71 68 67 66 60 56 52 52 52 62 59
11 12 11 9 9 16 15 13 11 19 19 21 22 24 25 28 30 34 40 41 42 45 48 48 50 55 54 48 51 48 47 48 48 49 52 57 61 66 70 69 67 66 63 59 61 60 57 56 58
12 13 12 10 11 15 14 14 12 16 18 18 21 22 24 27 27 32 36 40 44 46 50 50 51 53 54 54 57 54 53 52 52 52 53 58 60 65 68 69 71 70 68 67 67 66 63 58 54
14 15 14 14 13 14 15 16 13 12 18 19 20 20 23 26 29 31 35 40 43 46 51 52 54 54 55 62 54 55 55 51 50 52 57 56 64 69 72 74 78 80 80 75 69 66 64 62 57
17 11 15 16 19 19 14 19 11 14 21 22 22 25 26 29 32 31 36 39 42 47 51 55 58 54 56 62 61 63 59 57 59 59 61 67 69 72 76 79 83 85 85 87 86 81 71 64 61
17 20 20 19 20 19 16 17 12 13 16 17 20 24 26 30 32 34 37 40 41 46 51 57 58 56 59 65 66 65 64 64 64 67 72 73 73 77 77 83 94 94 95 91 88 91 90 88 82
18 20 19 18 19 26 17 16 15 13 15 14 15 20 26 31 33 35 39 40 41 47 53 57 57 56 59 65 67 68 70 72 73 75 77 78 81 81 83 85 90 89 90 91 92 92 92 92 88
19 21 29 32 31 29 15 17 14 12 14 16 18 21 28 33 34 36 36 38 43 48 54 56 55 56 56 67 68 70 72 75 77 79 82 85 89 90 90 92 96 95 93 94 96 96 98 97 94
21 21 30 28 25 18 17 19 14 16 15 22 23 22 29 34 37 37 40 43 43 46 49 50 50 52 59 71 72 73 78 81 83 86 87 89 92 95 97 97 99 99 99 98 98 97 98 95 94
27 33 21 29 26 30 20 14 11 22 22 22 26 29 32 34 34 37 42 46 43 40 44 50 47 50 65 73 75 77 84 91 93 95 95 97 99 95 97 100 100 98 98 99 99 99 99 96 94
26 18 31 27 35 32 18 16 24 33 25 24 25 28 30 33 38 41 46 51 44 42 45 57 59 61 69 71 78 84 91 98 100 99 99 98 98 98 99 100 99 97 98 99 99 99 100 100 99
30 28 24 22 25 33 34 39 39 67 26 26 23 20 29 35 46 56 60 54 55 60 64 77 83 71 68 68 78 95 100 100 100 100 99 99 99 100 99 99 99 98 97 98 98 98 100 99 100
19 22 23 41 34 25 28 52 21 26 34 31 24 23 23 40 49 61 94 96 91 97 97 94 84 83 82 74 79 88 93 97 100 100 100 98 98 98 98 99 98 97 97 97 97 98 98 99 100

GFSSGP_925_rhum_147.txt.gz
RH
10 13 18 25 25 27 24 16 10 16 18 31 32 48 56 53 59 90 68 80 94 92 75 69 65 62 59 56 56 56 57 59 62 63 61 61 62 63 60 63 68 75 77 74 65 66 67 68 71
11 15 19 22 27 31 25 12 16 20 18 28 32 41 52 64 56 82 90 100 84 90 92 93 83 77 74 72 68 63 59 58 60 67 70 69 67 66 65 64 68 72 80 84 82 77 72 71 72
15 18 25 28 29 28 21 12 12 10 13 21 32 35 52 72 76 89 97 97 92 99 100 100 99 98 90 84 80 78 75 70 64 63 67 76 76 76 70 68 69 72 75 80 84 84 83 76 75
17 20 23 23 23 15 15 13 9 8 10 30 38 70 66 73 79 85 93 91 93 97 99 100 99 98 88 86 80 80 80 79 78 72 68 70 77 81 78 74 71 72 76 77 83 85 83 83 73
16 21 27 27 23 13 12 11 11 10 16 35 48 73 78 77 86 90 91 89 90 90 89 91 91 90 90 94 88 85 84 84 83 81 79 74 72 76 76 76 76 76 76 77 77 78 80 74 75
20 22 29 30 18 12 12 10 11 14 30 43 57 59 69 73 80 82 84 86 85 85 86 87 85 76 75 77 82 81 86 93 90 87 84 84 80 76 76 80 77 73 73 71 74 75 79 71 73
20 26 29 25 20 15 13 10 13 19 24 27 39 57 63 62 64 57 52 53 60 63 67 71 75 61 60 67 67 69 75 77 84 89 90 88 87 84 83 80 74 69 68 65 64 69 72 72 69
18 23 24 21 19 16 12 10 11 18 27 23 25 50 70 58 52 49 49 51 49 50 52 52 56 57 55 61 58 60 63 70 70 63 76 82 87 91 92 90 86 81 73 69 68 66 72 72 72
12 24 28 22 19 16 10 12 12 23 29 28 29 47 51 50 44 43 44 46 49 51 51 47 43 48 52 52 54 54 55 63 63 60 56 60 76 80 82 86 89 84 82 76 73 81 73 73 74
18 27 22 14 14 14 11 13 12 23 29 30 30 31 33 36 32 36 41 47 50 52 53 50 47 43 48 47 45 46 47 49 46 58 58 50 55 64 68 71 81 81 86 85 84 78 81 79 79
15 21 16 14 14 13 12 13 14 24 30 29 34 35 32 31 31 33 36 43 48 52 52 52 49 46 48 46 40 42 48 48 41 54 57 50 47 47 47 50 53 66 74 76 76 81 83 80 79
11 10 12 12 11 12 13 16 26 26 30 28 28 28 30 34 35 34 36 38 46 49 51 52 51 46 49 48 45 50 52 47 46 54 56 50 52 52 51 48 52 60 63 61 73 89 82 85 86
11 11 10 12 11 11 11 12 26 26 25 24 24 28 33 35 34 33 35 37 42 48 49 49 52 48 48 45 47 47 51 44 46 51 51 48 56 56 55 52 53 58 58 59 62 67 84 75 77
12 13 13 10 12 11 12 17 22 24 24 25 28 32 33 36 34 35 35 38 43 47 48 50 57 50 49 50 50 48 51 45 50 52 49 46 59 55 55 56 58 57 59 57 59 63 67 71 87
12 14 13 12 10 12 12 13 27 24 22 26 29 31 34 36 33 35 35 39 44 47 49 52 56 48 48 50 49 48 48 48 50 49 50 52 56 53 55 59 64 65 67 63 58 57 58 58 63
15 14 18 13 11 12 12 18 26 23 24 30 31 32 35 37 35 34 36 42 45 47 49 51 56 50 51 51 48 49 50 50 50 50 52 56 56 63 67 67 66 70 71 70 68 66 67 65 60
20 20 18 14 10 14 14 29 25 23 23 29 32 36 37 40 38 37 37 42 47 48 49 51 53 51 52 49 46 48 51 52 53 54 60 63 62 66 70 72 74 74 74 80 80 84 83 77 74
24 21 18 16 13 14 16 24 25 23 23 27 31 35 37 41 43 39 42 43 47 49 49 50 52 53 52 48 50 49 51 52 55 60 62 60 64 66 67 72 73 75 79 76 79 79 79 91 79
19 14 15 12 12 14 16 18 27 24 24 30 32 34 38 42 40 39 43 44 48 50 50 52 53 54 54 56 59 59 59 58 58 60 61 65 66 67 70 80 80 82 83 82 76 82 87 89 87
16 17 19 16 13 15 19 17 15 24 23 27 29 34 39 39 42 42 43 44 47 50 51 54 54 55 58 61 64 64 63 62 64 65 67 68 69 73 79 75 84 89 92 90 81 83 86 86 85
21 21 20 19 14 14 18 21 19 17 23 23 26 29 36 37 40 40 45 45 48 50 54 56 55 56 60 61 65 65 67 70 73 75 78 76 79 73 80 85 90 92 91 91 90 90 82 84 85
24 18 17 17 18 25 16 30 19 17 24 23 27 34 36 35 37 40 44 46 46 50 55 58 56 57 58 66 68 72 75 78 77 77 77 79 78 85 87 89 93 92 92 91 90 86 92 93 88
30 26 20 20 23 25 23 27 23 20 28 28 36 36 40 39 40 45 45 42 47 51 56 57 56 56 58 68 71 73 77 80 80 83 86 88 90 91 92 92 93 95 96 97 98 98 97 96 92
24 21 21 24 28 44 29 28 26 18 21 29 31 36 39 43 46 45 40 42 50 54 56 53 54 54 58 69 72 76 80 84 88 88 93 95 97 96 97 96 93 93 94 98 96 98 100 100 96
21 30 48 49 47 48 23 25 22 18 22 27 32 36 42 42 47 48 47 47 51 53 52 48 46 56 64 70 74 80 85 90 94 96 98 97 100 100 99 99 97 97 96 94 98 99 99 99 100
28 33 56 46 55 44 25 30 28 24 24 26 28 40 42 45 44 50 49 48 47 48 50 48 47 60 66 73 77 82 89 95 96 94 95 95 100 100 96 97 97 98 97 97 98 98 99 99 99
36 36 27 38 38 48 41 29 26 28 30 29 40 42 46 48 50 53 52 45 45 51 55 52 53 62 65 75 77 79 90 93 94 91 93 92 100 98 97 96 96 98 97 98 97 98 98 99 100
26 24 39 52 52 57 41 32 58 44 38 37 37 44 43 46 50 55 53 47 50 60 60 55 63 66 65 72 76 79 83 84 81 87 90 88 100 95 96 95 96 98 97 98 97 97 98 98 98
35 35 35 45 49 57 66 70 58 52 42 42 39 37 45 51 61 68 63 61 62 66 63 58 70 67 70 77 83 77 82 82 81 91 84 84 92 91 94 96 96 96 97 97 98 97 97 98 98
27 34 42 70 44 53 58 71 39 48 48 39 33 28 36 61 74 82 85 77 64 58 54 76 72 64 78 84 82 81 80 81 82 88 85 79 92 87 88 94 97 96 96 96 96 98 98 99 99

GFSSGP_925_rhum_150.txt.gz
RH
10 13 20 24 24 30 27 19 16 22 49 53 52 66 86 81 79 96 80 72 76 99 100 87 78 70 65 64 62 62 62 63 64 66 65 66 69 67 63 63 64 65 68 72 76 76 70 68 71
12 15 20 26 32 32 25 17 32 46 48 46 49 56 72 94 75 93 97 100 100 100 100 98 98 87 80 76 74 71 68 65 65 69 72 71 72 71 68 66 66 67 70 72 78 78 78 74 70
15 19 24 31 36 29 23 14 21 39 36 34 49 69 77 91 84 94 100 100 98 98 98 100 92 82 78 76 74 72 72 73 69 66 67 73 77 74 72 69 70 71 71 73 76 80 80 78 76
16 21 25 27 24 21 17 13 11 36 35 49 66 84 80 86 85 96 99 98 97 95 94 92 88 92 88 83 80 78 80 80 80 78 74 71 73 79 79 75 73 75 75 73 76 78 80 76 71
18 26 29 31 25 18 13 12 11 30 49 60 65 89 88 90 92 92 92 91 90 88 87 82 82 76 81 80 82 85 89 90 87 85 85 84 80 74 79 82 80 78 77 79 76 76 78 80 77
22 26 32 32 22 16 14 12 36 53 62 63 68 82 91 86 85 84 82 79 82 85 84 73 68 68 69 69 80 77 76 78 84 88 91 92 90 86 81 76 79 82 82 80 75 78 78 83 85
22 28 29 26 25 19 14 16 26 33 43 53 51 79 83 76 65 57 54 54 54 56 64 63 58 60 62 62 65 66 74 68 62 64 76 86 92 92 91 91 90 87 81 77 76 77 76 75 77
23 26 24 24 22 20 13 12 21 28 30 30 52 78 85 70 59 53 49 47 45 46 46 50 56 54 58 56 57 56 63 60 57 54 50 62 75 77 82 87 90 89 89 87 86 82 77 76 76
16 26 31 24 18 16 12 23 27 30 35 41 45 59 63 66 56 50 47 47 47 46 44 41 45 47 45 47 48 47 46 43 52 52 49 41 44 50 55 65 75 76 82 87 89 88 85 83 81
21 29 23 19 14 14 13 18 26 34 42 47 64 59 57 54 47 50 54 58 53 51 48 43 41 41 35 36 39 40 40 39 48 54 48 43 38 37 36 35 41 50 65 69 72 79 88 85 84
18 23 20 14 13 14 16 24 23 36 40 44 61 54 40 40 45 51 55 53 52 51 49 46 42 42 38 40 41 41 36 37 46 53 48 42 42 39 35 34 33 34 43 58 63 74 95 96 91
14 15 13 14 12 13 15 26 30 31 34 36 35 36 38 41 43 47 53 52 50 48 51 49 42 41 43 42 42 44 39 45 49 50 48 44 50 50 50 47 42 37 38 41 49 58 62 71 76
12 13 12 12 12 12 14 27 32 34 33 31 31 34 40 42 44 43 49 49 47 50 56 54 44 45 46 43 43 45 43 48 48 48 49 51 56 55 54 53 52 52 50 45 44 46 50 56 64
13 13 12 11 13 12 27 30 27 28 30 32 35 40 41 43 42 44 46 49 48 50 55 52 44 48 44 44 45 46 46 47 46 47 53 58 55 56 58 58 60 62 64 63 58 57 57 56 54
14 14 13 12 12 13 20 26 28 28 29 34 37 40 42 42 39 43 46 48 49 50 51 52 46 49 44 43 43 43 44 44 47 51 56 58 60 62 64 64 65 67 68 68 69 66 70 75 64
16 16 18 13 12 12 14 21 28 30 32 40 40 41 43 43 44 45 45 46 47 49 51 52 49 48 44 45 46 49 48 50 53 58 58 59 60 60 60 62 64 66 68 70 70 78 73 76 80
23 22 21 18 13 14 15 22 30 30 31 37 40 44 44 47 45 44 45 46 49 50 51 52 51 50 48 49 49 47 49 52 55 56 61 61 61 62 63 66 68 67 67 66 72 74 78 82 84
29 25 21 17 13 16 21 27 29 29 31 35 42 44 46 46 50 44 48 50 50 50 51 52 53 53 49 46 40 42 48 54 56 59 62 60 63 69 71 78 78 84 85 84 81 77 77 84 86
24 26 23 15 14 16 20 30 30 28 32 40 42 45 47 47 48 44 49 51 51 51 53 53 54 55 50 46 40 48 57 60 61 63 66 65 68 71 79 86 91 93 92 89 83 81 82 86 90
31 30 23 16 14 15 19 26 30 28 28 32 39 45 47 48 50 51 52 52 50 52 55 55 57 57 56 54 57 60 59 65 66 67 65 64 65 71 87 91 93 95 94 92 89 86 88 80 80
30 24 22 20 16 15 20 23 22 27 26 29 34 40 42 47 50 53 56 53 52 53 56 57 59 58 57 58 55 57 62 67 73 73 75 75 75 83 87 93 90 92 96 96 94 90 88 92 85
31 21 20 20 22 26 20 34 24 21 29 30 34 43 43 45 46 51 57 58 53 57 58 58 58 58 59 61 61 66 74 81 84 80 79 80 77 84 90 97 87 95 98 98 98 97 95 98 93
30 26 27 21 24 28 26 29 30 19 28 30 37 42 42 43 46 54 58 53 55 57 58 58 57 57 62 65 68 68 71 81 86 88 87 87 89 90 97 99 88 95 95 94 97 97 97 99 100
27 23 28 30 31 42 31 28 24 22 24 33 39 41 43 48 50 54 50 54 59 59 56 57 55 61 65 67 70 71 76 88 90 94 95 92 96 95 97 96 96 97 99 98 95 96 99 99 99
25 32 50 47 48 49 29 29 26 24 22 36 42 44 45 47 52 54 61 66 62 56 51 53 54 65 70 71 74 75 76 91 92 97 96 96 100 100 96 97 99 99 97 97 96 98 98 99 99
32 36 60 79 66 47 29 36 28 31 33 31 38 43 47 51 50 52 59 65 60 52 47 50 56 66 72 73 73 64 71 86 93 94 87 96 99 95 96 99 98 99 96 99 97 96 98 98 99
35 42 32 53 45 53 44 30 26 36 46 44 49 48 51 51 53 56 59 61 57 52 50 50 56 65 71 71 67 59 66 70 84 85 79 91 97 95 97 98 98 100 98 96 98 96 98 98 98
35 30 48 73 81 60 45 39 56 40 55 53 53 53 51 54 58 61 57 59 61 55 55 54 57 60 67 68 63 60 68 74 86 79 79 84 88 84 93 95 95 97 98 94 95 98 98 98 98
35 47 46 48 58 61 65 69 62 56 49 53 50 49 53 56 64 69 60 70 62 62 61 61 61 62 64 62 59 61 72 81 86 79 76 83 70 82 84 95 94 79 95 93 95 96 95 96 97
32 36 49 86 76 52 59 69 44 53 52 44 40 38 47 55 68 73 85 83 76 69 65 67 62 52 59 64 62 73 79 79 85 78 68 70 72 80 86 94 100 74 72 90 95 96 96 96 97